Location: ActonStarParty
(42.4766°N, 71.4538°W)
Time: 15:11:36
(UTC-04:00)

ISS - All Passes

Search period start: 28 June 2017 00:00
Search period end: 08 July 2017 00:00
Orbit: 401 x 408 km, 51.6° (Epoch: 29 June)

Date Brightness Start Highest point End Pass type
(mag) Time Alt. Az. Time Alt. Az. Time Alt. Az.
28 Jun - 07:45:14 10° SW 07:48:26 55° SE 07:51:40 10° ENE daylight
28 Jun - 09:22:13 10° W 09:25:05 27° NNW 09:27:58 10° NE daylight
28 Jun - 11:00:10 10° NW 11:02:22 16° N 11:04:34 10° NE daylight
28 Jun - 12:36:48 10° NW 12:39:39 26° NNE 12:42:31 10° E daylight
28 Jun - 14:13:04 10° WNW 14:16:20 58° SW 14:19:34 10° SE daylight
29 Jun - 06:53:29 10° SSW 06:56:21 29° SE 06:59:14 10° ENE daylight
29 Jun - 08:29:39 10° W 08:32:45 39° NNW 08:35:53 10° NE daylight
29 Jun - 10:07:37 10° NW 10:09:54 17° N 10:12:11 10° NE daylight
29 Jun - 11:44:40 10° NW 11:47:15 21° NNE 11:49:51 10° ENE daylight
29 Jun - 13:20:51 10° NW 13:24:10 76° NE 13:27:27 10° ESE daylight
29 Jun - 14:58:33 10° W 15:00:14 13° SW 15:01:55 10° SSW daylight
30 Jun - 06:02:17 10° S 06:04:20 16° SE 06:06:24 10° E daylight
30 Jun - 07:37:14 10° WSW 07:40:29 64° NNW 07:43:45 10° NE daylight
30 Jun - 09:14:57 10° WNW 09:17:26 20° NNW 09:19:56 10° NE daylight
30 Jun - 10:52:28 10° NW 10:54:48 18° N 10:57:09 10° NE daylight
30 Jun - 12:28:43 10° NW 12:31:54 44° NNE 12:35:04 10° ESE daylight
30 Jun - 14:05:29 10° W 14:08:14 24° SW 14:10:58 10° SSE daylight
01 Jul - 06:45:01 10° SW 06:48:16 70° SE 06:51:33 10° ENE daylight
01 Jul - 08:22:15 10° WNW 08:25:01 24° NNW 08:27:47 10° NE daylight
01 Jul - 10:00:07 10° NW 10:02:19 16° N 10:04:31 10° NE daylight
01 Jul - 11:36:36 10° NW 11:39:33 30° NNE 11:42:31 10° E daylight
01 Jul - 13:12:58 10° WNW 13:16:09 45° SW 13:19:18 10° SE daylight
02 Jul - 05:53:06 10° SSW 05:56:07 36° SE 05:59:10 10° ENE daylight
02 Jul - 07:29:35 10° W 07:32:37 33° NNW 07:35:39 10° NE daylight
02 Jul - 09:07:35 10° NW 09:09:49 17° N 09:12:02 10° NE daylight
02 Jul - 10:44:28 10° NW 10:47:09 22° NNE 10:49:49 10° ENE daylight
02 Jul - 12:20:39 10° WNW 12:23:58 87° SW 12:27:15 10° SE daylight
02 Jul - 13:59:14 10° WSW 13:59:56 11° SW 14:00:40 10° SW daylight
03 Jul - 05:01:37 10° S 05:04:03 19° SE 05:06:29 10° E daylight
03 Jul - 06:37:04 10° WSW 06:40:17 53° NNW 06:43:31 10° NE daylight
03 Jul - 08:14:55 10° WNW 08:17:18 18° N 08:19:42 10° NE daylight
03 Jul - 09:52:16 10° NW 09:54:40 18° N 09:57:05 10° ENE daylight
03 Jul - 11:28:27 10° NW 11:31:41 53° NNE 11:34:55 10° ESE daylight
03 Jul - 13:05:28 10° W 13:07:56 20° SW 13:10:23 10° S daylight
04 Jul - 04:11:26 10° SE 04:12:02 10° SE 04:12:38 10° ESE visible
04 Jul - 05:44:44 10° SW 05:48:00 87° SE 05:51:17 10° ENE daylight
04 Jul - 07:22:10 10° WNW 07:24:49 22° NNW 07:27:29 10° NE daylight
04 Jul - 08:59:55 10° NW 09:02:09 17° N 09:04:22 10° NE daylight
04 Jul - 10:36:18 10° NW 10:39:20 34° NNE 10:42:22 10° E daylight
04 Jul - 12:12:46 10° WNW 12:15:50 36° SW 12:18:53 10° SSE daylight
05 Jul - 04:52:40 10° SW 04:55:48 45° SE 04:58:56 10° ENE daylight
05 Jul - 06:29:27 10° W 06:32:22 29° NNW 06:35:19 10° NE daylight
05 Jul - 08:07:25 10° NW 08:09:36 16° N 08:11:48 10° NE daylight
05 Jul - 09:44:08 10° NW 09:46:55 24° NNE 09:49:41 10° ENE daylight
05 Jul - 11:20:22 10° WNW 11:23:39 70° SW 11:26:55 10° SE daylight
06 Jul - 04:00:57 10° SSW 04:03:39 24° SE 04:06:21 10° E visible
06 Jul - 05:36:49 10° WSW 05:39:58 44° NNW 05:43:08 10° NE daylight
06 Jul - 07:14:44 10° NW 07:17:03 18° N 07:19:22 10° NE daylight
06 Jul - 08:51:55 10° NW 08:54:25 20° NNE 08:56:54 10° ENE daylight
06 Jul - 10:28:05 10° NW 10:31:22 64° NNE 10:34:38 10° ESE daylight
06 Jul - 12:05:25 10° W 12:07:30 16° SW 12:09:36 10° S daylight
07 Jul - 03:09:57 10° SSE 03:11:34 13° SE 03:13:11 10° E visible
07 Jul - 04:44:22 10° WSW 04:47:38 76° NNW 04:50:55 10° NE daylight
07 Jul - 06:21:58 10° WNW 06:24:31 21° NNW 06:27:05 10° NE daylight
07 Jul - 07:59:36 10° NW 08:01:52 17° N 08:04:08 10° NE daylight
07 Jul - 09:35:53 10° NW 09:39:00 39° NNE 09:42:06 10° E daylight
07 Jul - 11:12:30 10° WNW 11:15:24 29° SW 11:18:17 10° SSE daylight
